www.pogodaiklimat.ru

Погода и климат >> Архив погоды >> Фиджи >> Нэбаууолу


ПОГОДА в Нэбаууолу

  • Прогноз погоды в Нэбаууолу
  • Монитор погоды в Нэбаууолу

АРХИВ ПОГОДЫ в Нэбаууолу

Время (UTC), дата Ветер
(напр.,м/с)
 
Видим.   Явления Облачность Т
(С)
Тd
(С)
f
(%)
Тe
(С)
Тes
(С)
Комфортность P
(гПа)
Po
(гПа)
Тmin
(С)
Tmax
(С)
R
(мм)
R24
(мм)
S
(см)
09 14.07 ЮВ 5 50 км 4/4 750 м
[Cu Sc]
+23.3 +19.1 77 +30 +30 очень
душно
1011.8 1007.6
12 14.07 ЮВ 5 20 км 5/5 750 м
[Cu Sc]
+23.1 +19.0 78 +29 +29 очень
душно
1012.0 1007.8 +27.9
15 14.07 ЮВ 5 20 км 4/4 750 м
[Cu Sc]
+22.9 +18.8 78 +29 +29 очень
душно
1010.6 1006.4
18 14.07 В 5 50 км 5/5 750 м
[Cu Sc]
+23.0 +18.9 78 +29 +29 очень
душно
1010.5 1006.3
21 14.07 штиль 0 50 км 3/3 750 м
[Cu hum]
+25.2 +19.3 70 +30 +36 душно 1012.4 1008.2
21 15.07 штиль 0 50 км 1/1 900 м
[Cu hum]
+24.6 +18.7 70 +29 +36 душно 1012.7 1008.5
00 16.07 штиль 0 50 км 3/3 750 м
[Cu hum]
+29.5 +22.8 67 +39 +52 опасность
солнечного
удара
1011.5 1007.4 +19.4
03 16.07 штиль 0 50 км 5/5 750 м
[Cu Sc]
+27.8 +22.9 75 +37 +42 очень
душно
1009.1 1005.0
06 16.07 штиль 0 50 км 4/4 750 м
[Cu Sc]
+25.9 +22.7 83 +34 +34 очень
душно
1009.7 1005.6
09 16.07 штиль 0 50 км 4/4 750 м
[Cu Sc]
+21.8 +20.7 93 +28 +28 душно 1010.9 1006.7
12 16.07 штиль 0 20 км 3/3 750 м
[Cu Sc]
+21.9 +20.8 93 +28 +28 душно 1011.1 1006.9 +31.3
15 16.07 штиль 0 20 км 3/3 750 м
[Cu Sc]
+21.5 +20.7 95 +27 +27 душно 1009.2 1005.0
18 16.07 штиль 0 50 км 3/3 750 м
[Cu Sc]
+22.0 +19.5 86 +28 +28 душно 1011.2 1007.0
21 16.07 ЮВ 5 50 км 5/5 750 м
[Cu Sc]
+25.1 +21.8 82 +32 +34 очень
душно
1012.5 1008.3
21 17.07 ЮВ 5 50 км {дождь} 8/8 720 м
[Cu Sc]
+24.1 +21.9 88 +31 +32 очень
душно
1012.6 1008.4
00 18.07 ЮВ 5 20 км слаб. дождь 10/10 720 м
[Cu Sc]
+25.2 +23.5 90 +34 +34 очень
душно
1011.8 1007.6 +23.4 0.4 2
03 18.07 ЮВ 6 50 км {дождь} 6/6 750 м
[Cu Sc]
+24.9 +23.0 89 +33 +34 очень
душно
1010.4 1006.2
06 18.07 ЮВ 5 50 км {дождь} 10/10 720 м
[Cu Sc]
+24.1 +22.6 91 +32 +32 очень
душно
1010.8 1006.6 0.9
09 18.07 ЮВ 6 20 км слаб. дождь 10/10 720 м
[Cu Sc]
+23.9 +22.7 93 +31 +31 очень
душно
1012.7 1008.5
12 18.07 ЮВ 5 20 км {дождь} 9/9 720 м
[Cu Sc]
+23.7 +22.7 94 +31 +31 очень
душно
1012.4 1008.2 +26.0 0.8
15 18.07 В 6 20 км 8/8 720 м
[Cu Sc]
+23.4 +22.7 96 +33 +33 очень
душно
1010.2 1006.0
18 18.07 В 5 50 км {дождь} 6/6 750 м
[Cu Sc]
+24.6 +22.2 87 +32 +32 очень
душно
1011.3 1007.1 2
21 18.07 ЮВ 5 50 км 6/3 750 м
[Cu Sc Ac trans]
+27.3 +24.2 83 +38 +39 очень
душно
1013.1 1009.0
21 19.07 штиль 0 50 км 5/3 750 м
[Cu hum Ac trans]
+27.1 +25.0 88 +39 +43 очень
душно
1012.0 1007.9
00 20.07 Ю 2 50 км 5/4 750 м
[Cu hum Ac trans]
+28.4 +24.4 79 +40 +47 очень
душно
1010.7 1006.6 +24.0 2
03 20.07 штиль 0 50 км 8/5 750 м
[Cu Sc Ac lent]
+27.2 +24.2 84 +38 +40 очень
душно
1009.3 1005.2
06 20.07 штиль 0 50 км 6/4 750 м
[Cu Sc Ac trans]
+26.1 +24.7 92 +37 +37 очень
душно
1009.6 1005.5
09 20.07 штиль 0 20 км 5/3 750 м
[Cu hum Ac trans]
+24.5 +23.6 95 +33 +33 очень
душно
1010.4 1006.2
12 20.07 штиль 0 20 км 6/3 750 м
[Cu hum Ac trans]
+24.6 +23.4 93 +33 +33 очень
душно
1010.6 1006.4 +29.6
15 20.07 штиль 0 20 км 5/3 750 м
[Cu hum Ac trans]
+24.4 +23.1 92 +32 +32 очень
душно
1008.8 1004.6
18 20.07 штиль 0 50 км слаб. ливневой дождь 9/5 720 м
[Cu Sc Ac As]
+24.6 +24.2 98 +34 +34 очень
душно
1009.6 1005.4 0.0
21 20.07 ЮВ 6 20 км {дождь} 9/5 660 м
[Cu Sc Ac As]
+22.7 +22.6 99 +31 +31 очень
душно
1012.1 1007.9

 

Местоположение метеостанции Нэбаууолу (Фиджи): широта -17.00 долгота 178.70 высота над уровнем моря 36 м.

В архиве по умолчанию представлена погода в Нэбаууолу за последнюю неделю. Архивные данные за месяц целиком и за предыдущие месяцы, начиная с января 2011 года, Вы можете получить, выбрав интересующий диапазон дат из раскрывающегося списка и нажав кнопку "Ввод!".


*Определитесь, кто Вы:
робот инопланетянин человек

Внимание! Время в таблицах - всемирное. Для получения местного времени необходимо прибавить поправку, которая равна 12 ч.

Смотрите также архив погоды в соседних городах и на ближайших метеорологических станциях:

Погода на Вануа Мбалаву (Фиджи) (36 км)
Погода в Ракираки (Фиджи) (65 км)
Погода в Ламбасе (Фиджи) (100 км)
Погода в Наусори (Фиджи) (118 км)
Погода в Ясава-и-Рара (Фиджи) (124 км)
Погода в Сигатоке (Фиджи) (132 км)
Погода в Нанди (Фиджи) (157 км)
Погода на Вануа Леву (Фиджи) (167 км)
Погода на Острове Вива (Фиджи) (192 км)
Погода в Вьюнисея (Фиджи) (235 км)

Пояснения к столбцам:

Ветер - указаны скорость ветра в м/с - средняя за 10 мин, порывы в срок и между сроками (в фигурных скобках) и направление, откуда дует ветер: С - северный, СВ - северо-восточный, В - восточный, ЮВ - юго-восточный, Ю - южный, ЮЗ - юго-западный, З - западный, СЗ - северо-западный.
Видимость - горизонтальная дальность видимости в метрах или километрах. При видимости от 1 до 10 км при отсутствии осадков обычно наблюдается дымка, при ухудшении видимости до 1 км и менее - туман. В сухую погоду видимость может ухудшаться дымом, пылью или мглою.
Явления - указаны атмосферные явления, наблюдавшиеся в срок или в последний час перед сроком; фигурными скобками обозначены явления, наблюдавшиеся между сроками (за 1-3 часа до срока); квадратными скобками обозначены град или гололедные отложения с указанием их диаметра в мм.
Облачность - указаны через наклонную черту общая и нижняя облачность в баллах и высота нижней границы облаков в метрах; квадратными скобками обозначены формы облаков: Ci - перистые, Cs - перисто-слоистые, Cc - перисто-кучевые, Ac - высококучевые, As - высокослоистые, Sc - слоисто-кучевые, Ns - слоисто-дождевые, Cu - кучевые, Cb - кучево-дождевые. Подробнее классификацию облаков см. в Атласе облаков (PDF).
T - Температура воздуха - температура, измеренная на высоте 2 м над землей.
Td - Температура точки росы - температура, при понижении до которой содержащийся в воздухе водяной пар достигнет насыщения.
f - Относительная влажность воздуха - влажноcть воздуха, измеренная на высоте 2 м над землей.
Te - Эффективная температура - температура, которую ощущает одетый по сезону человек в тени. Характеристика душности погоды. При расчете учитывается влияние влажности воздуха и скорости ветра на теплоощущения человека.
Tes - Эффективная температура на солнце - температура, которую ощущает человек, с поправкой на солнечный нагрев. Характеристика знойности погоды. Зависит от высоты солнца над горизонтом, облачности и скорости ветра. Ночью, в пасмурную погоду, а также при ветре 12 м/с и более поправка равна нулю.
P - Атмосферное давление - приведенное к уровню моря атмосферное давление.
Po - Атмосферное давление - измеренное на уровне метеостанции атмосферное давление.
Tmin - Минимальная температура - минимум температуры воздуха на высоте 2 м над землей.
Tmax - Максимальная температура - максимум температуры воздуха на высоте 2 м над землей.
R - Количество осадков - Количество выпавших осадков за период времени, мм. При наведении курсора мыши на число - период времени, за который выпало указанное количество осадков.
R24 - Количество осадков - Количество выпавших осадков за 24 часа, мм.
S - Снежный покров - Высота снежного покрова, см. При наведении курсора мыши на число - состояние снежного покрова и степень покрытия местности в баллах.